Regional Weather Roundup
Issued by NWS

Home | Current Version | Previous Version | Graphics & Text | Print | Product List | Glossary On
Versions: 1 2 3 4 5 6 7 8 9 10 11 12 13 14 15 16 17 18 19 20 21 22 23 24 25 26 27 28 29 30 31 32 33 34 35 36 37 38 39 40 41 42 43 44 45 46 47 48 49 50
000
ASUS43 KLOT 260906
RWRIL

ILLINOIS REGIONAL WEATHER ROUNDUP
NATIONAL WEATHER SERVICE CHICAGO/ROMEOVILLE IL
400 AM CDT SUN OCT 26 2014

NOTE: "FAIR" INDICATES FEW OR NO CLOUDS BELOW 12,000 FEET WITH NO
SIGNIFICANT WEATHER AND/OR OBSTRUCTIONS TO VISIBILITY.

* THESE STATIONS ARE NOT UNDER NWS QUALITY CONTROL. THEY ALSO MAY NOT
  REPORT WEATHER SUCH AS PRECIPITATION OR FOG.

ILZ001-002-007-009-015-016-024-261000-
NORTHWEST ILLINOIS

CITY           SKY/WX    TMP DP  RH WIND       PRES   REMARKS
MOLINE         CLEAR     39  35  86 CALM      30.02F
STERLING*      CLEAR     39  30  70 CALM      30.02F
SAVANNA*       CLEAR     35  33  90 CALM      30.03S
$$

ILZ003-004-008-010-011-017-018-261000-
NORTH CENTRAL ILLINOIS

CITY           SKY/WX    TMP DP  RH WIND       PRES   REMARKS
ROCKFORD       CLEAR     39  32  76 CALM      30.03F
FREEPORT*      CLEAR     34  30  85 CALM      30.03F
ROCHELLE*      CLEAR     32  30  94 CALM      30.03S
DE KALB*       CLEAR     39  30  69 NW7       30.02F WCI  34
PERU*          CLEAR     42  33  72 CALM      30.03S
$$

ILZ005-006-012>014-019>023-261000-
NORTHEAST ILLINOIS

CITY           SKY/WX    TMP DP  RH WIND       PRES   REMARKS
CHICAGO-OHARE  CLEAR     46  29  51 NW8       30.00S
CHICAGO-MIDWAY CLEAR     48  30  49 NW7       30.00S
AURORA         CLEAR     34  29  82 NW8       30.01F WCI  27
LANSING*       CLEAR     40  31  69 CALM      30.00S
JOLIET*        CLEAR     38  32  79 CALM      30.01S
WAUKEGAN       CLEAR     44  28  53 W3        29.99S
DUPAGE AIRPORT CLEAR     46  29  51 NW9       30.00S
KANKAKEE*      CLEAR     40  35  84 W6        30.02S
WHEELING       CLEAR     47  29  49 NW5       30.02R
MORRIS*        CLEAR     40  33  76 CALM      30.00F
ROMEOVILLE*    CLEAR     41  32  70 CALM      30.01S
NORTHERLY ISL    N/A     55  25  31 NW12        N/A
$$

LMZ740>746-261000-
SOUTHERN LAKE MICHIGAN

STATION/POSITION SKY/WX   TEMP    WIND        PRES    VSBY  WAVE
                          AIR SEA DIR/SP/G                  HT/PER
                          (F)     (DEG/KT/KT) (MB)    (MI)  (FT/S)
SOUTHERN BUOY              54 54  310/ 17/ 19 1014.6R         3/ 5
WAUKEGAN HARBOR            50     310/  8/ 11   N/A
HARRISON CRIB              55     310/ 16/ 19   N/A
BURNHAM HARBOR             54     310/  9/ 17   N/A
CALUMET HARBOR             51     280/  5/  6 1014.5R
MICHIGAN CITY              55     300/ 17/ 21   N/A
$$

ILZ025>027-034>036-040-047-049-050-058-095>099-261000-
WEST-CENTRAL ILLINOIS

CITY           SKY/WX    TMP DP  RH WIND       PRES   REMARKS
QUINCY         CLEAR     52  36  54 E7        30.02F
GALESBURG*     CLEAR     41  37  84 CALM      30.02F
MACOMB*        CLEAR     41  36  83 CALM      30.05S
JACKSONVILLE*  CLEAR     50  39  67 CALM      30.02F
PITTSFIELD*    CLEAR     53  39  59 NE5       30.03F
$$

ILZ028>032-037-038-041>044-048-051>054-059>061-261000-
CENTRAL ILLINOIS

CITY           SKY/WX    TMP DP  RH WIND       PRES   REMARKS
PONTIAC        CLEAR     41  36  83 CALM      30.03F
BLOOMINGTON    CLEAR     51  34  52 N12       30.03F
DECATUR        CLEAR     48  36  63 N8        30.03S
PEORIA         CLEAR     46  37  71 N3        30.03F
LACON*         CLEAR     38  33  83 CALM      30.02F
LINCOLN*       CLEAR     45  39  79 CALM      30.02S
SPRINGFIELD    CLEAR     47  38  71 N3        30.03F
TAYLORVILLE    CLEAR     46  37  71 N5        30.02F
$$

ILZ033-039-045-046-055>057-062-063-261000-
EAST-CENTRAL ILLINOIS

CITY           SKY/WX    TMP DP  RH WIND       PRES   REMARKS
CHAMPAIGN      CLEAR     46  36  68 NW5       30.02F
DANVILLE*      CLEAR     44  34  67 NW5       29.99S
RANTOUL*       CLEAR     43  37  79 CALM      30.02S
MATTOON        CLEAR     49  37  63 N3        30.01F
PARIS*         CLEAR     46  39  77 NW3       30.02F
$$

ILZ079-100>102-261000-
SOUTHWEST ILLINOIS

CITY           SKY/WX    TMP DP  RH WIND       PRES   REMARKS
ALTON          CLEAR     49  42  75 CALM      30.02S
BELLEVILLE     CLEAR     50  49  99 CALM      30.01S
CAHOKIA*       CLEAR     49  48  97 CALM      30.02S FOG
SPARTA*        CLEAR     56  48  76 NE5       30.02S
$$

ILZ064>066-069>071-074>076-080>082-084>086-088>090-092>094-261000-
SOUTH-CENTRAL ILLINOIS

CITY           SKY/WX    TMP DP  RH WIND       PRES   REMARKS
CARBONDALE     CLEAR     49  47  93 CALM      30.01S FOG
CAIRO*         FOG       58  56  93 CALM      30.00F VSB 1/2
EFFINGHAM*     CLEAR     53  33  46 N3        30.01F
MARION         CLEAR     50  50 100 CALM      30.02S FOG
MT. VERNON     CLEAR     46  41  81 CALM      30.02S VSB 1
CENTRALIA*     CLEAR     50  46  84 CALM      30.01F
SALEM*         CLEAR     57  43  59 NE5       30.02S
METROPOLIS*    CLEAR     53  53 100 CALM      29.99F FOG
$$

ILZ067-068-072-073-078-083-087-091-261000-
SOUTHEAST ILLINOIS

CITY           SKY/WX    TMP DP  RH WIND       PRES   REMARKS
LAWRENCEVILLE  CLEAR     52  46  80 NW3       30.01F HAZE
FLORA*         CLEAR     52  44  72 CALM      30.02S
FAIRFIELD*     CLEAR     50  47  88 CALM      30.01S
HARRISBURG*    CLEAR     49  49 100 CALM      30.02S
ROBINSON*      CLEAR     46  42  85 CALM      30.02F
CARMI*         CLEAR     49  48  97 CALM      30.01S
$$

ABBREVIATIONS USED IN REMARKS
   TC - TEMPERATURE IN CELSIUS
  WCI - WIND CHILL INDEX
   HX - HEAT INDEX
  VSB - VISIBILITY
$$




USA.gov is the U.S. government's official web portal to all federal, state and local government web resources and services.